Location: Добрич
(43.6638°N, 27.9002°E)
Time: 23:43:03
(UTC+03:00)

ISS - Visible Passes

Search period start: 20 May 2025 00:00
Search period end: 30 May 2025 00:00
Orbit: 416 x 419 km, 51.6° (Epoch: 20 May)

Date Brightness Start Highest point End Pass type
(mag) Time Alt. Az. Time Alt. Az. Time Alt. Az.
20 May -2.6 22:32:18 10° NW 22:35:29 38° NNE 22:36:54 25° ENE visible
21 May -1.1 00:09:08 10° WNW 00:09:48 15° WNW 00:09:48 15° WNW visible
21 May -2.1 21:44:19 10° NW 21:47:20 29° NNE 21:50:19 10° E visible
21 May -2.8 23:20:58 10° WNW 23:23:25 42° W 23:23:25 42° W visible
22 May -3.8 22:32:53 10° WNW 22:36:14 82° NNE 22:37:02 49° ESE visible
23 May -3.2 21:44:50 10° NW 21:48:08 53° NNE 21:50:40 16° ESE visible
23 May -1.7 23:21:59 10° W 23:23:35 19° WSW 23:23:35 19° WSW visible
24 May -3.0 22:33:36 10° WNW 22:36:44 38° SW 22:37:15 35° SSW visible
25 May -3.6 21:45:22 10° WNW 21:48:42 64° SW 21:50:56 19° SE visible
26 May -1.5 22:35:01 10° W 22:36:57 15° SW 22:37:35 14° SW visible
27 May -2.1 21:46:14 10° W 21:48:59 24° SW 21:51:21 12° S visible
